Location: Castillon
(43.0896°N, 0.2156°E)
Time: 01:38:36
(UTC+00:00)

Cosmos 2228 - Pass Details

Date: 16 June 2021
Orbit: 588 x 618 km, 82.5° (Epoch: 04 August)

Event Time Altitude Azimuth Distance (km) Brightness Sun altitude
Rises 22:54:10 0° 349° (N) 2,903 8.0 -21.8°
Reaches altitude 10° 22:56:24 10° 348° (NNW) 1,993 6.8 -21.9°
Maximum altitude 23:00:49 74° 264° (W) 647 3.0 -22.1°
Enters shadow 23:01:23 63° 208° (SSW) 692 3.0 -22.2°
